This demonstration page uses our WeatherBlox Daily Observations layout. Learn more.

38.89511, -77.03637

Hourly Observations for July 24, 2019

Temp ( °F °C ) Dew Point ( °F °C ) Humidity (%) Winds ( mph kmh ) Pressure ( in mb ) Visibility ( mi km ) Precip ( " mm )
12:52 am 00:52 Cloudy 73 22.8 64 17.8 74 74 NNW 9 15 29.88 1012 10 16.09344 0 0
1:52 am 01:52 Cloudy 72 22.2 64 17.8 76 76 NNW 9 15 29.85 1011 10 16.09344 0 0
2:52 am 02:52 Cloudy 71 21.7 64 17.8 79 79 NW 9 15 29.88 1012 10 16.09344 0 0
3:52 am 03:52 Cloudy 70 21.1 64 17.8 82 82 NNW 7 11 29.88 1012 10 16.09344 0 0
4:52 am 04:52 Partly Cloudy 70 21.1 62 16.7 76 76 NNE 12 19 29.91 1013 10 16.09344 0 0
5:52 am 05:52 Mostly Cloudy 69 20.6 62 16.7 78 78 NNE 12 19 29.94 1014 10 16.09344 0 0
6:52 am 06:52 Mostly Cloudy 69 20.6 63 17.2 81 81 NNW 9 15 29.94 1014 10 16.09344 0 0
7:52 am 07:52 Mostly Cloudy 72 22.2 63 17.2 73 73 N 6 9 29.94 1014 10 16.09344 0 0
8:52 am 08:52 Mostly Cloudy 75 23.9 62 16.7 64 64 NNE 3 6 29.97 1015 10 16.09344 0 0
9:52 am 09:52 Partly Cloudy 76 24.4 60 15.6 58 58 N 5 7 29.97 1015 10 16.09344 0 0
10:52 am 10:52 Sunny 79 26.1 63 17.2 58 58 VRB 6 9 29.97 1015 10 16.09344 0 0
11:52 am 11:52 Partly Cloudy 82 27.8 62 16.7 51 51 NNW 10 17 29.97 1015 10 16.09344 0 0
12:52 pm 12:52 Mostly Cloudy 82 27.8 60 15.6 47 47 VRB 3 6 29.97 1015 10 16.09344 0 0
1:52 pm 13:52 Mostly Cloudy 82 27.8 59 15 46 46 NNW 9 15 29.94 1014 10 16.09344 0 0
2:52 pm 14:52 Mostly Cloudy 86 30 60 15.6 42 42 NNW 7 11 29.94 1014 10 16.09344 0 0
3:52 pm 15:52 Mostly Cloudy 84 28.9 58 14.4 41 41 NNE 7 11 29.94 1014 10 16.09344 0 0
4:52 pm 16:52 Mostly Cloudy 83 28.3 59 15 44 44 N 8 13 29.94 1014 10 16.09344 0 0
5:52 pm 17:52 Mostly Cloudy 80 26.7 62 16.7 54 54 SSE 7 11 29.94 1014 10 16.09344 0 0
6:09 pm 18:09 Mostly Cloudy with Light Rain 76 24.4 64 17.8 67 67 SE 17 28 29.97 1015 10 16.09344 0.001 0.001
6:50 pm 18:50 Cloudy with Heavy Rain 72 22 64 18 78 78 WSW 12 19 30 1016 1.5 2.414016 0.06 1.524
6:52 pm 18:52 Cloudy with Heavy Rain 71 21.7 64 17.8 79 79 SW 12 19 29.97 1015 1.25 2.01168 0.16 4.064
6:57 pm 18:57 Cloudy with Heavy Rain 71 21.7 64 17.8 79 79 SSW 12 19 30 1016 0.75 1.207008 0.12 3.048
6:59 pm 18:59 Cloudy with Heavy Rain 71 21.7 64 17.8 79 79 SSW 9 15 30 1016 1 1.609344 0.17 4.318
7:06 pm 19:06 Cloudy with Heavy Rain 71 21.7 64 17.8 79 79 SE 10 17 30 1016 3 4.828032 0.21 5.334
7:15 pm 19:15 Cloudy with Light Rain 71 21.7 64 17.8 79 79 ESE 10 17 30 1016 8 12.874752 0.21 5.334
7:52 pm 19:52 Mostly Cloudy 71 21.7 65 18.3 81 81 NNE 8 13 30 1016 10 16.09344 0.21 5.334
8:52 pm 20:52 Cloudy 72 22.2 63 17.2 73 73 NE 8 13 30 1016 10 16.09344 0 0
9:52 pm 21:52 Cloudy 74 23.3 63 17.2 69 69 W 3 6 30.03 1017 10 16.09344 0 0
10:52 pm 22:52 Cloudy 73 22.8 64 17.8 74 74 WSW 5 7 30.03 1017 10 16.09344 0.001 0.001
11:52 pm 23:52 Mostly Cloudy 71 21.7 65 18.3 81 81 SW 8 13 30.03 1017 10 16.09344 0 0

Powered by AerisWeather